TimeEST,TemperatureF,Dew PointF,Humidity,Sea Level PressureIn,VisibilityMPH,Wind Direction,Wind SpeedMPH,Gust SpeedMPH,PrecipitationIn,Events,Conditions,WindDirDegrees,DateUTC
12:34 AM,35.6,33.8,93,29.75,5.0,North,8.1,-,0.00,Snow,Light Snow,350,2013-02-14 05:34:00
12:54 AM,35.1,33.1,92,29.75,5.0,NNW,4.6,-,0.00,Snow,Light Snow,340,2013-02-14 05:54:00
1:13 AM,35.6,33.8,93,29.76,5.0,NW,5.8,-,0.00,,Overcast,320,2013-02-14 06:13:00
1:54 AM,36.0,33.1,89,29.79,5.0,WNW,6.9,-,0.00,,Overcast,300,2013-02-14 06:54:00
2:54 AM,35.1,33.1,92,29.82,5.0,NW,8.1,-,N/A,,Overcast,310,2013-02-14 07:54:00
3:54 AM,35.1,33.1,92,29.83,5.0,West,3.5,-,N/A,,Overcast,260,2013-02-14 08:54:00
4:37 AM,33.8,32.0,93,29.85,7.0,WSW,3.5,-,N/A,,Mostly Cloudy,250,2013-02-14 09:37:00
4:54 AM,34.0,30.9,89,29.86,7.0,West,5.8,-,N/A,,Mostly Cloudy,270,2013-02-14 09:54:00
5:05 AM,33.8,30.2,87,29.86,6.0,West,6.9,-,N/A,,Mostly Cloudy,270,2013-02-14 10:05:00
5:54 AM,32.0,30.0,92,29.90,5.0,West,6.9,-,N/A,,Partly Cloudy,260,2013-02-14 10:54:00
6:46 AM,33.8,30.2,87,29.91,5.0,West,6.9,-,N/A,,Overcast,260,2013-02-14 11:46:00
6:48 AM,33.8,30.2,87,29.91,4.0,West,6.9,-,N/A,,Overcast,260,2013-02-14 11:48:00
6:54 AM,33.1,30.9,92,29.92,4.0,WSW,6.9,-,N/A,,Overcast,240,2013-02-14 11:54:00
7:07 AM,33.8,30.2,87,29.93,4.0,WSW,6.9,-,N/A,,Overcast,250,2013-02-14 12:07:00
7:50 AM,35.6,32.0,87,29.95,5.0,West,5.8,-,N/A,,Scattered Clouds,280,2013-02-14 12:50:00
7:54 AM,36.0,32.0,86,29.95,5.0,WNW,6.9,-,N/A,,Scattered Clouds,290,2013-02-14 12:54:00
8:54 AM,37.9,32.0,79,29.97,6.0,WNW,4.6,-,N/A,,Haze,300,2013-02-14 13:54:00
9:42 AM,39.2,33.8,81,29.98,7.0,NW,6.9,-,N/A,,Scattered Clouds,320,2013-02-14 14:42:00
9:54 AM,39.9,32.0,73,29.98,7.0,NNW,6.9,-,N/A,,Scattered Clouds,330,2013-02-14 14:54:00
10:54 AM,42.1,30.0,62,29.99,9.0,NW,5.8,-,N/A,,Scattered Clouds,320,2013-02-14 15:54:00
11:46 AM,44.6,28.4,53,29.99,10.0,Variable,3.5,-,N/A,,Scattered Clouds,0,2013-02-14 16:46:00
11:54 AM,45.0,28.9,53,29.99,10.0,Variable,5.8,-,N/A,,Scattered Clouds,0,2013-02-14 16:54:00
12:54 PM,46.0,28.9,51,29.97,10.0,Variable,4.6,-,N/A,,Partly Cloudy,0,2013-02-14 17:54:00
1:54 PM,46.0,27.0,47,29.97,10.0,WSW,5.8,-,N/A,,Scattered Clouds,240,2013-02-14 18:54:00
2:54 PM,46.0,28.9,51,29.97,10.0,WSW,9.2,-,N/A,,Scattered Clouds,240,2013-02-14 19:54:00
3:54 PM,46.0,28.0,50,29.98,10.0,WSW,9.2,-,N/A,,Scattered Clouds,250,2013-02-14 20:54:00
4:54 PM,45.0,28.0,52,29.99,10.0,WSW,9.2,-,N/A,,Scattered Clouds,250,2013-02-14 21:54:00
5:54 PM,43.0,27.0,53,29.99,10.0,SW,6.9,-,N/A,,Partly Cloudy,230,2013-02-14 22:54:00
6:54 PM,41.0,28.9,62,30.01,10.0,South,6.9,-,N/A,,Clear,190,2013-02-14 23:54:00
7:54 PM,39.9,28.0,63,30.02,10.0,SW,6.9,-,N/A,,Clear,230,2013-02-15 00:54:00
8:54 PM,37.9,28.9,70,30.03,10.0,SSW,5.8,-,N/A,,Clear,210,2013-02-15 01:54:00
9:54 PM,37.0,30.0,76,30.04,10.0,South,5.8,-,N/A,,Clear,190,2013-02-15 02:54:00
10:54 PM,35.1,30.0,82,30.02,10.0,SSW,4.6,-,N/A,,Clear,210,2013-02-15 03:54:00
11:04 PM,35.6,30.2,81,30.02,7.0,SW,6.9,-,N/A,,Clear,220,2013-02-15 04:04:00
11:23 PM,35.6,30.2,81,30.02,6.0,SSW,4.6,-,N/A,,Haze,200,2013-02-15 04:23:00
11:54 PM,36.0,30.9,82,30.04,6.0,SW,4.6,-,N/A,,Haze,220,2013-02-15 04:54:00